This is the latest recevied weather packets stored in our database for station/object WL7CLI. If no packets are shown the sender has not sent any weather packets the latest 10 day(s).
| Time | Temp. | Humidity | Pressure | Rain* | Wind** | Luminosity | Snow |
|---|---|---|---|---|---|---|---|
| 1777983372 | 7.78° C | 85% | 1010.5 hPa | 0 mm | - | - | - |
| 1777982305 | 7.22° C | 87% | 1010.6 hPa | 0 mm | - | - | - |
| 1777982299 | 7.22° C | 87% | 1010.5 hPa | 0 mm | - | - | - |
| 1777982174 | 7.22° C | 87% | 1010.5 hPa | 0 mm | - | - | - |
| 1777981099 | 6.67° C | 86% | 1010.6 hPa | 0 mm | - | - | - |
| 1777980972 | 6.67° C | 86% | 1010.6 hPa | 0 mm | - | - | - |
| 1777980504 | 6.67° C | 85% | 1010.6 hPa | 0 mm | - | - | - |
| 1777979899 | 6.67° C | 84% | 1010.5 hPa | 0 mm | - | - | - |
| 1777979772 | 6.67° C | 84% | 1010.5 hPa | 0 mm | - | - | - |
| 1777978704 | 7.22° C | 83% | 1010.2 hPa | 0 mm | - | - | - |
| 1777978698 | 7.22° C | 83% | 1010 hPa | 0 mm | - | - | - |
| 1777978572 | 7.22° C | 83% | 1010 hPa | 0 mm | - | - | - |
| 1777977499 | 7.22° C | 79% | 1009.6 hPa | 0 mm | - | - | - |
| 1777977372 | 7.78° C | 78% | 1009.5 hPa | 0 mm | - | - | - |
| 1777976905 | 7.78° C | 76% | 1009.9 hPa | 0 mm | - | - | - |
| 1777976298 | 7.78° C | 73% | 1009.2 hPa | 0 mm | - | - | - |
| 1777976173 | 7.78° C | 73% | 1009.1 hPa | 0 mm | - | - | - |
| 1777975104 | 8.33° C | 71% | 1009.7 hPa | 0 mm | - | - | - |
| 1777975098 | 8.33° C | 71% | 1009.3 hPa | 0 mm | - | - | - |
| 1777974971 | 8.33° C | 71% | 1009.5 hPa | 0 mm | - | - | - |
| 1777973899 | 8.89° C | 66% | 1008.9 hPa | 0 mm | - | - | - |
| 1777973772 | 8.89° C | 65% | 1008.7 hPa | 0 mm | - | - | - |
| 1777973304 | 8.89° C | 65% | 1009.1 hPa | 0 mm | - | - | - |
| 1777972698 | 8.89° C | 63% | 1008.3 hPa | 0.25 mm | - | - | - |
| 1777972571 | 8.89° C | 62% | 1008.3 hPa | 0.25 mm | - | - | - |
* Rain latest hour (hover to see other rain measurements)
** Current wind speed in m/s (hover to see current wind gust speed)